Regional Weather Roundup
Issued by NWS

Home | Current Version | Previous Version | Text Only | Print | Product List | Glossary Off
Versions: 1 2 3 4 5 6 7 8 9 10 11 12 13 14 15 16 17 18 19 20 21 22 23 24 25 26 27 28 29 30 31 32 33 34 35 36 37 38 39 40 41 42 43 44 45 46 47 48 49 50

498
ASUS43 KIND 190859
RWRIN

WEATHER ROUNDUP FOR INDIANA
NATIONAL WEATHER SERVICE INDIANAPOLIS IN
400 AM EST MON FEB 19 2018

NOTE: "FAIR" INDICATES FEW OR NO CLOUDS BELOW 12,000 FEET WITH NO
SIGNIFICANT WEATHER AND/OR OBSTRUCTIONS TO VISIBILITY.

* - STATION DOES NOT REPORT WEATHER SUCH AS PRECIPITATION OR FOG.

+ - STATION NOT QUALITY CONTROLLED BY THE NATIONAL WEATHER SERVICE.
    USE DATA WITH CAUTION...ESPECIALLY DEWPOINT AND RELATIVE
    HUMIDITY OBSERVATIONS.

INZ001>003-010>013-019-020-191000-
NORTHWEST INDIANA

CITY           SKY/WX    TMP DP  RH WIND       PRES   REMARKS
MONTICELLO +   LGT RAIN  43  39  86 S12G17    29.90R
RENSSELAER +   DRIZZLE   39  36  87 CALM      29.91F

$$

LMZ046-743>745-191000-
SOUTHERN LAKE MICHIGAN

STATION/POSITION TIME  TEMP    WIND        PRES    WAVE
                       AIR SEA DIR/SP/G            HT
                 (UTC) (F)     (DEG/KT/KT) (MB)    (FT)
BURNS HARBOR     0840   41     170/ 16/ 22 1012.5S
MICHIGAN CITY    0830   40     160/ 15/ 19   N/A

$$

INZ004-005-014>016-021>024-191000-
NORTH CENTRAL INDIANA

CITY           SKY/WX    TMP DP  RH WIND       PRES   REMARKS
GOSHEN         LGT RAIN  39  34  82 S9        29.93S WCI  33
PERU/GRISSOM   LGT RAIN  44  44 100 S20       29.89F
SOUTH BEND     CLOUDY    37  34  89 S8        29.93R WCI  31
WARSAW +       LGT RAIN  37  34  87 SE5       29.90F WCI  34

$$

INZ006>009-017-018-025>027-191000-
NORTHEAST INDIANA

CITY           SKY/WX    TMP DP  RH WIND       PRES   REMARKS
AUBURN +       RAIN      36  32  87 CALM      29.99R
FORT WAYNE     LGT RAIN  39  33  79 SE7       29.95F WCI  34
KENDALLVILLE + DRIZZLE   38  32  78 S6        29.97R WCI  34

$$

INZ028-029-035-036-043>045-051>053-191000-
WEST CENTRAL INDIANA

CITY           SKY/WX    TMP DP  RH WIND       PRES   REMARKS
LAFAYETTE      RAIN      45  42  89 SW9       29.92R FOG
TERRE HAUTE    CLOUDY    50  44  80 S15G25    29.95F

$$

INZ030>032-037>040-046>048-054>057-064-065-191000-
CENTRAL INDIANA

CITY           SKY/WX    TMP DP  RH WIND       PRES   REMARKS
GREENWOOD *+   CLOUDY   N/A N/A N/A S13       30.00S
INDIANAPOLIS   CLOUDY    47  41  80 S14       29.97F
-EAGLE CREEK   LGT RAIN  47  38  71 S9        29.94F
KOKOMO +       LGT RAIN  44  39  82 S18       29.92S
MT COMFORT *+  CLOUDY    43  41  93 S10       29.99R
SHELBYVILLE    LGT RAIN  47  37  68 S16       30.00F

$$

INZ033-034-041-042-049-050-058-059-191000-
EAST CENTRAL INDIANA

CITY           SKY/WX    TMP DP  RH WIND       PRES   REMARKS
MUNCIE         LGT RAIN  48  38  68 S12G21    29.97R
RICHMOND +     CLOUDY    39  36  87 S13       30.03S WCI  32

$$

INZ060-061-067>069-081>083-085>088-191000-
SOUTHWEST INDIANA

CITY           SKY/WX    TMP DP  RH WIND       PRES   REMARKS
EVANSVILLE     CLOUDY    55  50  83 S10       30.04F
HUNTINGBURG +  CLOUDY    53  48  83 S15       30.05S

$$

INZ062-063-066-070>080-084-089>092-191000-
SOUTH CENTRAL AND SOUTHEAST INDIANA

CITY           SKY/WX    TMP DP  RH WIND       PRES   REMARKS
BLOOMINGTON    CLOUDY    47  43  86 S8        30.00S
SEYMOUR +      CLOUDY    54  45  71 S12G23    30.04

$$





USA.gov is the U.S. government's official web portal to all federal, state and local government web resources and services.